Location: Bazugues
(43.4465°N, 0.3432°E)
Time: 08:28:28
(UTC+00:00)

Cosmos 2263 - Pass Details

Date: 12 January 2026
Orbit: 830 x 864 km, 70.9° (Epoch: 17 February)

Event Time Altitude Azimuth Distance (km) Brightness Sun altitude
Rises 17:33:47 0° 336° (NNW) 3,428 7.4 -8.9°
Reaches altitude 10° 17:36:15 10° 338° (NNW) 2,483 6.7 -9.3°
Maximum altitude 17:41:58 77° 64° (ENE) 868 4.1 -10.3°
Drops below altitude 10° 17:47:35 10° 151° (SSE) 2,445 6.5 -11.3°
Sets 17:50:00 0° 153° (SSE) 3,371 7.2 -11.7°
